Volver al catálogo

COSMOS 2012

ActivoMilitarLEO
NORAD 19906·PAYLOAD·🇷🇺 Russia

Lanzado Mar 24, 1989 desde Plesetsk Cosmodrome

Loading…

Próximos Pases (próximas 24 horas)

TLE

ActualizadoSource: Space-Track

Época: Sep 14, 2026, 11:50 UTC

1 19906U 89025E   26257.49373069  .00000002  00000-0  11951-3 0  9994
2 19906  74.0115 178.4126 0009669  87.1904  28.1608 12.50247481710437

Sigue COSMOS 2012 en tiempo real con AllMySat

Download on the App Store